FW5867 Weather Reports


Display with metric or nautical units.
time (UTC)temp
F
wind
direction
speed
MPH
gust
MPH
rain 1hr
in
rain 24hr
in
rain mn
in
humidity
%
barometer
mb
20210730062802 59 21 5.0 5.0 0.00 0.00 0.00 60 1054.4
20210730062304 59 21 5.0 5.0 0.00 0.00 0.00 60 1054.3
20210730061802 0 28 3.0 3.0 0.00 0.00 0.00 1054.2
20210730061301 0 28 3.0 3.0 0.00 0.00 0.00 1054.5
20210730060803 58 10 3.0 3.0 0.00 0.00 0.00 60 1054.8
20210730060302 58 10 3.0 3.0 0.00 0.00 0.00 60 1054.4
20210730055802 58 264 1.0 1.0 0.00 0.00 0.00 60 1054.3
20210730055305 58 28 1.0 1.0 0.00 0.00 0.00 60 1054.3
20210730054802 0 24 5.0 5.0 0.00 0.00 0.00 1054.2
20210730054303 0 24 5.0 6.0 0.00 0.00 0.00 1054.1
20210730053802 0 32 6.0 6.0 0.00 0.00 0.00 1054.1
20210730053302 0 34 4.0 4.0 0.00 0.00 0.00 1054.1
20210730052802 0 24 2.0 2.0 0.00 0.00 0.00 1054.3
20210730052305 56 17 3.0 3.0 0.00 0.00 0.00 60 1054.4
20210730051801 56 17 3.0 4.0 0.00 0.00 0.00 60 1054.4
20210730051302 56 35 1.0 4.0 0.00 0.00 0.00 60 1054.4
20210730050802 55 38 3.0 3.0 0.00 0.00 0.00 60 1054.2
20210730050302 55 38 3.0 3.0 0.00 0.00 0.00 60 1054.7
20210730045802 55 37 2.0 3.0 0.00 0.00 0.00 60 1054.3
20210730045301 55 30 3.0 4.0 0.00 0.00 0.00 62 1054.2
20210730044802 55 24 4.0 4.0 0.00 0.00 0.00 62 1054.2
20210730044302 55 31 2.0 3.0 0.00 0.00 0.00 62 1054.0
20210730043802 55 31 2.0 4.0 0.00 0.00 0.00 62 1054.1
20210730043302 55 42 0.0 4.0 0.00 0.00 0.00 62 1054.1
20210730042801 55 34 3.0 4.0 0.00 0.00 0.00 62 1054.1
20210730042305 55 30 2.0 3.0 0.00 0.00 0.00 62 1054.1
20210730041801 55 30 2.0 3.0 0.00 0.00 0.00 62 1054.0
20210730041302 0 35 2.0 2.0 0.00 0.00 0.00 1054.2
20210730040802 55 35 2.0 2.0 0.00 0.00 0.00 62 1054.3
20210730040302 55 27 1.0 2.0 0.00 0.00 0.00 62 1054.4
20210730035802 55 27 1.0 4.0 0.00 0.00 0.00 62 1054.3
20210730035305 55 37 3.0 4.0 0.00 0.00 0.00 62 1054.5
20210730034802 55 25 2.0 5.0 0.00 0.00 0.00 62 1054.6
20210730034302 55 21 4.0 5.0 0.00 0.00 0.00 62 1054.6
20210730033802 55 31 3.0 4.0 0.00 0.00 0.00 62 1054.8
20210730033301 55 38 1.0 4.0 0.00 0.00 0.00 62 1054.9
20210730032801 55 39 1.0 1.0 0.00 0.00 0.00 62 1055.0
20210730032305 55 10 4.0 4.0 0.00 0.00 0.00 62 1054.9
20210730031801 55 10 4.0 4.0 0.00 0.00 0.00 62 1054.5
20210730031302 55 44 1.0 2.0 0.00 0.00 0.00 62 1053.8
20210730030802 55 47 0.0 3.0 0.00 0.00 0.00 62 1053.9
20210730030302 55 37 1.0 3.0 0.00 0.00 0.00 62 1054.0
20210730025802 55 54 1.0 5.0 0.00 0.00 0.00 62 1053.8
20210730025305 56 37 4.0 5.0 0.00 0.00 0.00 62 1053.8
20210730024802 56 24 4.0 5.0 0.00 0.00 0.00 62 1053.8
20210730024303 56 21 4.0 5.0 0.00 0.00 0.00 62 1053.8
20210730023802 56 353 2.0 2.0 0.00 0.00 0.00 62 1053.8
20210730023302 56 34 2.0 2.0 0.00 0.00 0.00 62 1053.8
20210730022802 56 83 1.0 4.0 0.00 0.00 0.00 62 1053.9
20210730022305 56 37 3.0 4.0 0.00 0.00 0.00 62 1054.0
20210730021802 56 39 1.0 4.0 0.00 0.00 0.00 62 1054.0
20210730021301 56 44 2.0 4.0 0.00 0.00 0.00 62 1054.1
20210730020802 56 127 1.0 3.0 0.00 0.00 0.00 62 1054.4
20210730020301 56 348 2.0 3.0 0.00 0.00 0.00 61 1054.3
20210730015802 56 8 0.0 2.0 0.00 0.00 0.00 61 1054.2
20210730015305 57 279 0.0 2.0 0.00 0.00 0.00 61 1054.3
20210730014802 57 25 0.0 2.0 0.00 0.00 0.00 61 1054.3
20210730014302 57 13 2.0 4.0 0.00 0.00 0.00 61 1054.4
20210730013802 57 24 2.0 4.0 0.00 0.00 0.00 61 1054.3
20210730013301 57 32 0.0 3.0 0.00 0.00 0.00 61 1054.3
20210730012802 57 21 0.0 1.0 0.00 0.00 0.00 61 1054.4
20210730012305 57 11 0.0 1.0 0.00 0.00 0.00 61 1054.5
20210730011802 57 347 0.0 2.0 0.00 0.00 0.00 61 1054.5
20210730011302 57 17 0.0 4.0 0.00 0.00 0.00 61 1054.5
20210730010802 57 4 3.0 4.0 0.00 0.00 0.00 61 1054.6
20210730010302 57 23 1.0 1.0 0.00 0.00 0.00 61 1054.8
20210730005802 57 24 0.0 1.0 0.00 0.00 0.00 61 1054.5
20210730005305 58 24 0.0 1.0 0.00 0.00 0.00 61 1054.6
20210730004802 58 24 0.0 1.0 0.00 0.00 0.00 61 1054.6
20210730004302 59 24 0.0 2.0 0.00 0.00 0.00 59 1054.6
20210730003802 59 24 0.0 4.0 0.00 0.00 0.00 59 1054.5
20210730003302 60 28 2.0 4.0 0.00 0.00 0.00 57 1054.5
20210730002802 60 20 2.0 2.0 0.00 0.00 0.00 57 1054.5
20210730002305 60 18 2.0 4.0 0.00 0.00 0.00 57 1054.5
20210730001802 60 24 3.0 4.0 0.00 0.00 0.00 58 1054.5
20210730001301 60 27 2.0 4.0 0.00 0.00 0.00 58 1054.5
20210730000802 59 28 3.0 4.0 0.00 0.00 0.00 59 1054.6
20210730000303 59 18 3.0 4.0 0.00 0.00 0.00 59 1054.9
20210729235802 59 28 2.0 4.0 0.00 0.00 0.00 59 1054.6
20210729235305 59 27 2.0 4.0 0.00 0.00 0.00 59 1054.7
20210729234801 59 25 3.0 4.0 0.00 0.00 0.00 59 1054.7
20210729234301 59 35 4.0 4.0 0.00 0.00 0.00 59 1054.7
20210729233802 59 21 1.0 3.0 0.00 0.00 0.00 59 1054.7
20210729233301 59 25 1.0 2.0 0.00 0.00 0.00 59 1054.9
20210729232802 59 31 1.0 1.0 0.00 0.00 0.00 59 1054.9
20210729232301 59 27 1.0 2.0 0.00 0.00 0.00 59 1055.0
20210729231802 60 32 1.0 2.0 0.00 0.00 0.00 59 1055.1
20210729231302 60 1 1.0 2.0 0.00 0.00 0.00 58 1054.9
20210729230803 60 27 1.0 3.0 0.00 0.00 0.00 58 1055.1
20210729230301 60 23 1.0 3.0 0.00 0.00 0.00 58 1055.3
20210729225802 60 20 0.0 3.0 0.00 0.00 0.00 58 1055.1
20210729225305 60 27 2.0 3.0 0.00 0.00 0.00 58 1055.1
20210729224802 60 319 1.0 2.0 0.00 0.00 0.00 58 1054.9
20210729224301 60 24 0.0 2.0 0.00 0.00 0.00 57 1054.8
20210729223802 60 23 1.0 2.0 0.00 0.00 0.00 57 1054.8
20210729223301 60 16 0.0 2.0 0.00 0.00 0.00 57 1054.9
20210729222802 60 348 0.0 1.0 0.00 0.00 0.00 58 1054.8
20210729222305 60 20 0.0 1.0 0.00 0.00 0.00 58 1054.8
20210729221802 60 20 0.0 2.0 0.00 0.00 0.00 59 1054.8
20210729221301 59 21 1.0 2.0 0.00 0.00 0.00 60 1054.7
20210729220801 59 10 0.0 1.0 0.00 0.00 0.00 60 1054.8
20210729220301 59 10 0.0 1.0 0.00 0.00 0.00 59 1055.0
20210729215802 60 10 0.0 1.0 0.00 0.00 0.00 59 1054.8
20210729215301 60 10 0.0 1.0 0.00 0.00 0.00 59 1054.8
20210729214802 60 8 0.0 1.0 0.00 0.00 0.00 59 1054.9
20210729214302 60 358 0.0 1.0 0.00 0.00 0.00 57 1054.9
20210729213802 60 8 0.0 0.0 0.00 0.00 0.00 57 1055.0
20210729213301 60 8 0.0 0.0 0.00 0.00 0.00 56 1055.0
20210729212802 61 8 0.0 1.0 0.00 0.00 0.00 56 1055.0
20210729212301 61 8 0.0 1.0 0.00 0.00 0.00 55 1054.9
20210729211802 61 4 0.0 1.0 0.00 0.00 0.00 55 1055.1
20210729211302 61 13 1.0 1.0 0.00 0.00 0.00 54 1055.0
20210729210801 61 306 0.0 1.0 0.00 0.00 0.00 54 1055.1
20210729210302 61 27 0.0 1.0 0.00 0.00 0.00 54 1055.4
20210729205801 62 28 1.0 1.0 0.00 0.00 0.00 54 1055.1
20210729205305 62 358 0.0 1.0 0.00 0.00 0.00 54 1055.1
20210729204801 62 31 0.0 1.0 0.00 0.00 0.00 54 1055.0
20210729204302 61 16 1.0 1.0 0.00 0.00 0.00 55 1055.0
20210729203802 61 7 0.0 0.0 0.00 0.00 0.00 56 1055.0
20210729203302 61 7 0.0 0.0 0.00 0.00 0.00 56 1055.0
20210729202802 61 340 0.0 0.0 0.00 0.00 0.00 56 1054.9
20210729202304 61 340 0.0 0.0 0.00 0.00 0.00 55 1054.9
20210729201802 61 340 0.0 0.0 0.00 0.00 0.00 54 1054.9
20210729201302 62 340 0.0 1.0 0.00 0.00 0.00 55 1054.9
20210729200802 62 340 0.0 1.0 0.00 0.00 0.00 55 1054.9
20210729200302 62 340 0.0 1.0 0.00 0.00 0.00 54 1055.0
20210729195802 62 340 0.0 0.0 0.00 0.00 0.00 54 1054.6
20210729195306 62 340 0.0 0.0 0.00 0.00 0.00 54 1054.5
20210729194802 62 340 0.0 0.0 0.00 0.00 0.00 54 1054.6
20210729194302 62 340 0.0 0.0 0.00 0.00 0.00 53 1054.5
20210729193803 63 327 0.0 0.0 0.00 0.00 0.00 53 1054.9
20210729193303 63 327 0.0 0.0 0.00 0.00 0.00 53 1055.3
20210729192803 63 327 0.0 0.0 0.00 0.00 0.00 52 1055.0
20210729192305 64 327 0.0 0.0 0.00 0.00 0.00 52 1054.8
20210729191802 64 327 0.0 0.0 0.00 0.00 0.00 52 1054.7
20210729191302 64 327 0.0 0.0 0.00 0.00 0.00 52 1054.6
20210729190802 64 327 0.0 0.0 0.00 0.00 0.00 52 1054.6
20210729190303 65 327 0.0 0.0 0.00 0.00 0.00 52 1054.9
20210729185801 65 329 0.0 0.0 0.00 0.00 0.00 50 1054.8
20210729185305 65 4 0.0 0.0 0.00 0.00 0.00 50 1054.8
20210729184801 65 4 0.0 0.0 0.00 0.00 0.00 49 1054.7
20210729184302 65 4 0.0 1.0 0.00 0.00 0.00 48 1054.7
20210729183802 66 7 0.0 1.0 0.00 0.00 0.00 48 1054.6
20210729183302 66 107 0.0 2.0 0.00 0.00 0.00 48 1054.7
20210729182803 66 10 0.0 2.0 0.00 0.00 0.00 48 1055.2
20210729182305 66 188 0.0 0.0 0.00 0.00 0.00 50 1055.8
20210729181803 66 31 0.0 0.0 0.00 0.00 0.00 50 1057.1
20210729181302 66 31 0.0 0.0 0.00 0.00 0.00 48 1054.4
20210729180802 67 35 0.0 0.0 0.00 0.00 0.00 45 1054.4
20210729180302 67 35 0.0 0.0 0.00 0.00 0.00 45 1054.7
20210729175803 67 35 0.0 0.0 0.00 0.00 0.00 45 1055.3
20210729175304 68 106 0.0 0.0 0.00 0.00 0.00 45 1056.2
20210729174801 68 106 0.0 0.0 0.00 0.00 0.00 46 1054.9
20210729174303 68 96 0.0 0.0 0.00 0.00 0.00 45 1055.1
20210729173802 0 157 0.0 0.0 0.00 0.00 0.00 1056.5
20210729173302 0 157 0.0 0.0 0.00 0.00 0.00 1056.6
20210729172802 0 0.0 0.0 0.00 0.00 0.00 1055.1
20210729172301 69 124 0.0 0.0 0.00 0.00 0.00 42 1055.3
20210729171802 69 124 0.0 2.0 0.00 0.00 0.00 42 1055.2
20210729171302 69 106 1.0 4.0 0.00 0.00 0.00 42 1055.8
20210729170801 69 71 2.0 4.0 0.00 0.00 0.00 42 1055.5
20210729170302 69 72 1.0 7.0 0.00 0.00 0.00 41 1055.8
20210729165802 69 94 5.0 10.0 0.00 0.00 0.00 42 1055.1
20210729165305 0 45 5.0 10.0 0.00 0.00 0.00 1056.3
20210729164803 69 25 0.0 2.0 0.00 0.00 0.00 42 1054.6
20210729164302 69 44 2.0 2.0 0.00 0.00 0.00 42 1054.8
20210729163802 0 28 2.0 2.0 0.00 0.00 0.00 1054.9
20210729163302 69 52 1.0 3.0 0.00 0.00 0.00 42 1055.1
20210729162802 69 52 1.0 3.0 0.00 0.00 0.00 42 1055.3
20210729162305 69 21 3.0 3.0 0.00 0.00 0.00 42 1057.3
20210729161802 69 37 1.0 9.0 0.00 0.00 0.00 42 1057.0
20210729161301 69 13 6.0 9.0 0.00 0.00 0.00 39 1056.3
20210729160802 0 21 3.0 3.0 0.00 0.00 0.00 1057.0
20210729160302 70 42 1.0 1.0 0.00 0.00 0.00 39 1056.6
20210729155802 70 63 1.0 2.0 0.00 0.00 0.00 39 1055.6
20210729155305 70 21 2.0 2.0 0.00 0.00 0.00 39 1056.0
20210729154801 71 306 2.0 3.0 0.00 0.00 0.00 40 1057.0
20210729154302 71 71 3.0 5.0 0.00 0.00 0.00 40 1058.1
20210729153801 70 102 4.0 7.0 0.00 0.00 0.00 40 1057.6
20210729153302 71 45 5.0 9.0 0.00 0.00 0.00 40 1057.5
20210729152801 70 317 3.0 9.0 0.00 0.00 0.00 40 1057.6
20210729152305 69 59 2.0 3.0 0.00 0.00 0.00 40 1057.5
20210729151802 70 8 1.0 7.0 0.00 0.00 0.00 40 1056.9
20210729151301 70 337 6.0 7.0 0.00 0.00 0.00 41 1056.5
20210729150802 0 82 1.0 1.0 0.00 0.00 0.00 1056.7
20210729150302 0 345 2.0 2.0 0.00 0.00 0.00 1056.4
20210729145802 0 345 2.0 6.0 0.00 0.00 0.00 1056.3
20210729145301 69 8 3.0 10.0 0.00 0.00 0.00 38 1056.4
20210729144803 69 343 3.0 10.0 0.00 0.00 0.00 38 1056.4
20210729144303 69 25 6.0 6.0 0.00 0.00 0.00 40 1056.4
20210729143802 70 13 2.0 7.0 0.00 0.00 0.00 40 1056.5
20210729143303 70 66 1.0 7.0 0.00 0.00 0.00 38 1056.7
20210729142802 70 59 5.0 6.0 0.00 0.00 0.00 38 1056.3
20210729142305 71 254 3.0 5.0 0.00 0.00 0.00 38 1056.6
20210729141802 71 54 4.0 11.0 0.00 0.00 0.00 38 1057.3
20210729141301 71 93 2.0 11.0 0.00 0.00 0.00 38 1057.3
20210729140802 71 17 5.0 5.0 0.00 0.00 0.00 38 1057.6
20210729140302 0 0.0 0.0 0.00 0.00 0.00 1056.7
20210729135802 0 0.0 0.0 0.00 0.00 0.00 1057.3
20210729135305 0 4 2.0 2.0 0.00 0.00 0.00 1058.1
20210729134801 0 4 2.0 7.0 0.00 0.00 0.00 1057.9
20210729134303 71 7 7.0 7.0 0.00 0.00 0.00 38 1058.1
20210729133731 71 82 5.0 5.0 0.00 0.00 0.00 38 1057.6
20210729133230 0 54 4.0 4.0 0.00 0.00 0.00 1057.9
20210729132730 70 54 4.0 9.0 0.00 0.00 0.00 38 1057.6
20210729132230 70 85 4.0 11.0 0.00 0.00 0.00 38 1057.0
20210729131731 71 24 8.0 11.0 0.00 0.00 0.00 42 1058.3
20210729131203 70 4 2.0 2.0 0.00 0.00 0.00 42 1058.4
20210729130702 70 39 2.0 6.0 0.00 0.00 0.00 42 1058.5
20210729130201 70 25 5.0 6.0 0.00 0.00 0.00 42 1058.8
20210729125702 69 47 4.0 9.0 0.00 0.00 0.00 42 1058.4
20210729125202 0 63 5.0 9.0 0.00 0.00 0.00 1058.0
20210729124702 0 23 6.0 6.0 0.00 0.00 0.00 1057.9
20210729124202 0 21 4.0 6.0 0.00 0.00 0.00 1058.3
20210729123701 68 31 3.0 6.0 0.00 0.00 0.00 43 1058.2
20210729123202 68 62 2.0 4.0 0.00 0.00 0.00 43 1058.1
20210729122702 68 353 4.0 9.0 0.00 0.00 0.00 43 1057.2
20210729122202 68 92 6.0 9.0 0.00 0.00 0.00 43 1057.8
20210729121702 67 68 1.0 5.0 0.00 0.00 0.00 44 1057.3
20210729121202 67 68 2.0 5.0 0.00 0.00 0.00 44 1056.9
20210729120702 67 18 2.0 4.0 0.00 0.00 0.00 43 1056.4
20210729120202 67 55 0.0 3.0 0.00 0.00 0.00 43 1056.6
20210729115702 67 114 1.0 9.0 0.00 0.00 0.00 41 1056.5
20210729115202 68 52 5.0 9.0 0.00 0.00 0.00 39 1057.1
20210729114702 69 32 4.0 9.0 0.00 0.00 0.00 44 1057.9
20210729114202 0 21 9.0 12.0 0.00 0.00 0.00 1058.1
20210729113702 68 66 4.0 12.0 0.00 0.00 0.00 43 1057.5
20210729113202 68 13 3.0 10.0 0.00 0.00 0.00 43 1057.2
20210729112702 67 47 4.0 5.0 0.00 0.00 0.00 45 1057.0
20210729112202 67 44 2.0 6.0 0.00 0.00 0.00 45 1056.6
20210729111702 67 343 3.0 9.0 0.00 0.00 0.00 45 1056.7
20210729111201 66 20 5.0 9.0 0.00 0.00 0.00 45 1057.1
20210729110702 66 71 3.0 5.0 0.00 0.00 0.00 44 1056.8
20210729110201 66 312 2.0 4.0 0.00 0.00 0.00 45 1056.8
20210729105702 66 10 2.0 7.0 0.00 0.00 0.00 44 1057.2
20210729105201 66 130 3.0 7.0 0.00 0.00 0.00 44 1057.3
20210729104702 66 20 2.0 6.0 0.00 0.00 0.00 44 1057.2
20210729104202 66 61 4.0 10.0 0.00 0.00 0.00 44 1056.9
20210729103702 67 11 6.0 10.0 0.00 0.00 0.00 44 1057.0
20210729103202 67 24 4.0 11.0 0.00 0.00 0.00 44 1057.4
20210729102703 66 348 3.0 11.0 0.00 0.00 0.00 44 1057.2
20210729102202 66 4 5.0 10.0 0.00 0.00 0.00 44 1057.5
20210729101702 66 54 3.0 10.0 0.00 0.00 0.00 44 1057.4
20210729101202 66 32 4.0 6.0 0.00 0.00 0.00 43 1057.3
20210729100701 67 63 4.0 11.0 0.00 0.00 0.00 45 1057.3
20210729100202 67 68 6.0 11.0 0.00 0.00 0.00 45 1057.6
20210729095701 67 65 4.0 6.0 0.00 0.00 0.00 45 1057.3
20210729095202 67 62 3.0 6.0 0.00 0.00 0.00 45 1057.3
20210729094703 66 18 3.0 7.0 0.00 0.00 0.00 45 1057.3
20210729094202 66 83 4.0 7.0 0.00 0.00 0.00 44 1057.4
20210729093702 66 20 6.0 6.0 0.00 0.00 0.00 46 1057.2
20210729093202 66 32 5.0 6.0 0.00 0.00 0.00 46 1057.3
20210729092702 66 79 2.0 5.0 0.00 0.00 0.00 46 1057.3
20210729092202 66 56 4.0 5.0 0.00 0.00 0.00 46 1057.1
20210729091702 66 56 3.0 4.0 0.00 0.00 0.00 48 1057.3
20210729091202 66 8 2.0 5.0 0.00 0.00 0.00 48 1057.4
20210729090702 65 21 2.0 5.0 0.00 0.00 0.00 47 1057.6
20210729090203 65 86 3.0 7.0 0.00 0.00 0.00 47 1057.5
20210729085701 65 18 3.0 7.0 0.00 0.00 0.00 47 1056.9
20210729085202 65 54 2.0 5.0 0.00 0.00 0.00 49 1056.6
20210729084702 65 51 4.0 5.0 0.00 0.00 0.00 49 1056.5
20210729084202 65 99 2.0 5.0 0.00 0.00 0.00 49 1056.7
20210729083701 65 317 2.0 9.0 0.00 0.00 0.00 49 1056.9
20210729083202 65 128 3.0 9.0 0.00 0.00 0.00 51 1056.9
20210729082702 64 118 0.0 4.0 0.00 0.00 0.00 51 1056.4
20210729082202 64 94 0.0 7.0 0.00 0.00 0.00 50 1055.8
20210729081702 65 63 2.0 7.0 0.00 0.00 0.00 50 1055.4
20210729081202 65 56 2.0 4.0 0.00 0.00 0.00 52 1056.0
20210729080703 65 52 1.0 3.0 0.00 0.00 0.00 53 1056.5
20210729080202 65 82 2.0 6.0 0.00 0.00 0.00 53 1056.4
20210729075702 65 130 0.0 6.0 0.00 0.00 0.00 53 1056.4
20210729075202 65 317 3.0 6.0 0.00 0.00 0.00 53 1056.3
20210729074702 65 56 3.0 9.0 0.00 0.00 0.00 53 1056.5
20210729074202 64 25 5.0 9.0 0.00 0.00 0.00 53 1056.6
20210729073701 64 38 3.0 5.0 0.00 0.00 0.00 55 1056.0
20210729073202 64 202 2.0 5.0 0.00 0.00 0.00 55 1056.0
20210729072701 64 65 2.0 5.0 0.00 0.00 0.00 55 1055.5
20210729072202 63 351 2.0 6.0 0.00 0.00 0.00 56 1056.0
20210729071702 63 23 3.0 6.0 0.00 0.00 0.00 57 1056.6
20210729071202 62 310 2.0 3.0 0.00 0.00 0.00 57 1056.4
20210729070702 62 20 1.0 6.0 0.00 0.00 0.00 58 1056.7
20210729070202 62 90 3.0 6.0 0.00 0.00 0.00 58 1056.9
20210729065702 62 35 2.0 4.0 0.00 0.00 0.00 58 1056.7
20210729065202 62 44 1.0 4.0 0.00 0.00 0.00 58 1056.6
20210729064702 61 34 2.0 4.0 0.00 0.00 0.00 58 1056.7
20210729064202 61 25 2.0 5.0 0.00 0.00 0.00 58 1056.7
20210729063702 61 48 2.0 5.0 0.00 0.00 0.00 58 1056.7
20210729063202 61 41 1.0 5.0 0.00 0.00 0.00 58 1056.6